Location: El Bakhil
(32.7726°N, 5.5387°W)
Time: 04:18:41
(UTC+00:00)

CZ-2C R/B - Pass Details

Date: 03 March 2021
Orbit: 784 x 871 km, 98.2° (Epoch: 12 April)

Event Time Altitude Azimuth Distance (km) Brightness Sun altitude
Rises 19:45:18 0° 6° (N) 3,406 5.8 -18.5°
Reaches altitude 10° 19:47:44 10° 3° (N) 2,455 5.1 -19.0°
Maximum altitude 19:53:02 56° 286° (WNW) 975 3.3 -20.1°
Drops below altitude 10° 19:58:11 10° 209° (SSW) 2,385 5.3 -21.2°
Sets 20:00:31 0° 205° (SSW) 3,301 6.0 -21.7°
